Regional Weather Roundup
Issued by NWS

Home | Current Version | Previous Version | Graphics & Text | Print | Product List | Glossary On
Versions: 1 2 3 4 5 6 7 8 9 10 11 12 13 14 15 16 17 18 19 20 21 22 23 24 25 26 27 28 29 30 31 32 33 34 35 36 37 38 39 40 41 42 43 44 45 46 47 48 49 50
000
ASUS44 KMEG 270200
RWRTN
TENNESSEE HOURLY STATE WEATHER ROUNDUP
NATIONAL WEATHER SERVICE MEMPHIS TN
900 PM CDT FRI AUG 26 2016

TNZ002-004-019-021-049-052-054-088>092-270300-
WEST TENNESSEE

CITY           SKY/WX    TMP DP  RH WIND       PRES   REMARKS
MEMPHIS INTL   CLOUDY    76  71  85 E5        30.06R
NWS MEMPHIS      N/A     73 N/A N/A MISG        N/A
JACKSON        CLOUDY    73  73 100 NE5       30.09R
DYERSBURG      PTCLDY    73  70  88 MISG      30.08S
UNION CITY     CLOUDY    73  73 100 SE8       30.10R
PARIS          CLOUDY    68  68 100 SW6       30.13F
LEXINGTON      CLOUDY    72  72 100 N5        30.09S
$$

TNZ008-025-027-028-033-062-065-066-270300-
NORTH MIDDLE TENNESSEE

CITY           SKY/WX    TMP DP  RH WIND       PRES   REMARKS
NASHVILLE      CLOUDY    86  74  67 NE3       30.07R HX  94
CLARKSVILLE    CLOUDY    83  75  77 CALM      30.06S HX  90
SMYRNA         MOCLDY    84  75  74 E3        30.06S THUNDER HX  92
COOKEVILLE     CLEAR     81  75  83 NE5       30.09S
CROSSVILLE     PTCLDY    77  72  84 CALM      30.17R
$$

TNZ061-075-076-078-094-096-097-270300-
SOUTH MIDDLE TENNESSEE

CITY           SKY/WX    TMP DP  RH WIND       PRES   REMARKS
TULLAHOMA        N/A     75  70  83 SW9       30.12S
WINCHESTER     PTCLDY    75  72  88 W7        30.11S
MCMINNVILLE    PTCLDY    82  77  83 SE10G230  30.10S HX  91
COLUMBIA       CLOUDY   N/A N/A N/A NE5       30.12S
SHELBYVILLE    MOCLDY    81  75  83 SW6       30.11R
$$

TNZ017-018-042-046-047-270300-
NORTHEAST TENNESSEE

CITY           SKY/WX    TMP DP  RH WIND       PRES   REMARKS
TRI CITIES     PTCLDY    79  70  74 CALM      30.16R
$$

TNZ012-013-036-069-073-074-270300-
CENTRAL EAST TENNESSEE

CITY           SKY/WX    TMP DP  RH WIND       PRES   REMARKS
KNOXVILLE      CLOUDY    84  67  56 NE5       30.09R
GATLINBURG     CLEAR     81  70  69 CALM      30.11R
$$

TNZ083-085-099-270300-
SOUTHEAST TENNESSEE

CITY           SKY/WX    TMP DP  RH WIND       PRES   REMARKS
CHATTANOOGA    PTCLDY    78  71  79 CALM      30.09R
$$

SKY/WX REPORTED AS FAIR MEANS FEW OR NO CLOUDS BELOW
12 THOUSAND FEET.




USA.gov is the U.S. government's official web portal to all federal, state and local government web resources and services.